カタログに戻る

STARLINK-32613

運用中通信VLEO
NORAD 61970·PAYLOAD·🇺🇸 United States

打ち上げ Nov 14, 2024 から Cape Canaveral Space Force Station

Loading…

次のパス (今後24時間)

TLE

最新Source: CelesTrak SupGP

元期: Sep 15, 2026, 02:55 UTC

1 61970C 24210M   26258.12201389 -.00060567  00000+0 -21943-2 0  2585
2 61970  42.9997 190.3375 0001367 273.3572 220.8146 15.27600051    10

AllMySatでSTARLINK-32613をリアルタイム追跡

Download on the App Store